Location: Góry Miechowskie
(50.3599°N, 20.1803°E)
Time: 00:51:52
(UTC+00:00)

S-56A Canister/Altair - Pass Details

Date: 19 September 2024
Orbit: 636 x 2487 km, 38.9° (Epoch: 15 October)

Event Time Altitude Azimuth Distance (km) Brightness Sun altitude
Rises 19:20:01 0° 258° (WSW) 3,449 11.5 -24.3°
Reaches altitude 10° 19:22:31 10° 247° (WSW) 2,700 10.7 -24.6°
Maximum altitude 19:28:07 30° 188° (S) 2,017 9.4 -25.3°
Enters shadow 19:28:44 30° 180° (S) 2,075 9.4 -25.4°
Drops below altitude 10° 19:35:52 10° 132° (SE) 3,811 - -26.3°
Sets 19:40:08 0° 124° (SE) 5,128 - -26.8°
